ONEWEB-0286 (49076 NORAD) Tracking and Keplerian Element Data

This shows tracking and keplerian element data for the satellite.

Feedback or suggestion? Click here.




ElementValue
Catalog49076
NameONEWEB-0286
Epoch Orbit561
Epoch Day262.16668981
Epoch Year2021
RAAN356.3441
Inclination87.3285
Eccentricity0.0019893
Argument of Perigee196.3957
Mean Anonmoly262.6954
Mean Motion15.20350541
Decay Rate-0.00812599
L11 49076U 21075B 21262.16668981 -.00812599 00000-0 -40198-1 0 9998
L22 49076 87.3285 356.3441 0019893 196.3957 262.6954 15.20350541 5619

Live tracking and technical data element details for ONEWEB-0286 (NORAD 49076). ONEWEB-0286 can be tracked NOW for your location showing map with azimuth and elevation plus other details from your city location.

Track the satellite on the map from your city or location and see movement details for azimuth, elevation, latitude, longitude, range, height, and movement on the map or in text.







IsCatalogInMostPopularTable: catalog: 49076, numindb: 5
Update: records affected: 1



GetName: 49076 ONEWEB-0286

Hit Count: updated at: Fri, 24 Sep 2021 18:38:49 GMT